#timestamp,LO_Frequency,Hit,StdDev 
1690948815.3,286046996.7,N
1690948835.1,286046997.3,N
1690948855.8,286046997.1,N
1690948875.7,286046996.5,N
1690948895.5,286046999.0,N
1690948915.3,286046997.0,N
1690948935.2,286046999.1,N
1690948955.9,286046996.8,N
1690948975.7,286046997.0,N
1690948995.6,286046997.9,N
1690949015.4,286046995.6,Y
1690949035.2,286046998.4,P
1690949055.1,286046998.6,P
1690949056.0,286046998.6,P
1690949075.8,286047001.2,N
1690949095.6,286047000.7,N
1690949115.5,286047000.8,N
1690949135.3,286047000.9,N
1690949155.1,286047001.0,N
1690949175.9,286047000.6,N
1690949195.7,286046998.5,N
1690949215.5,286046998.1,N
1690949235.4,286046998.4,N
1690949255.2,286046999.2,N
1690949275.0,286046998.9,N
1690949275.9,286046998.9,N
1690949295.8,286047000.8,N
1690949315.6,286046999.9,N
1690949335.4,286046998.2,N
1690949355.3,286047000.8,N
1690949375.1,286046998.8,N
1690949395.8,286046998.1,N
1690949415.7,286046998.3,N
1690949435.5,286047000.3,N
1690949455.4,286047000.9,N
1690949475.2,286046998.3,N
1690949495.0,286046998.7,N
1690949495.9,286046998.7,N
1690949515.8,286046999.5,N
1690949535.6,286047004.1,Y
1690949555.4,286047000.7,P
1690949575.3,286046998.3,N
1690949595.1,286046998.2,N
1690949596.0,286046998.2,N
1690949615.8,286046999.1,N
1690949635.7,286047001.1,N
1690949655.5,286047000.5,N
1690949675.3,286047000.1,N
1690949695.2,286047001.1,N
1690949715.9,286046998.1,N
1690949735.7,286047000.4,N
1690949755.6,286047000.3,N
1690949775.4,286047000.6,N
1690949795.2,286047000.6,N
1690949815.1,286047000.5,N
1690949816.0,286047000.5,N
1690949835.8,286047000.4,N
1690949855.6,286046999.9,N
1690949875.5,286046999.8,N
1690949895.3,286047000.9,N
1690949915.1,286046998.6,N
1690949935.9,286046998.2,N
1690949955.7,286046999.8,N
1690949975.5,286047000.4,N
1690949995.4,286046998.5,N
1690950015.2,286047001.2,N
1690950035.0,286047000.6,N
1690950035.9,286047000.6,N
1690950055.8,286047000.7,N
1690950075.6,286047001.1,N
1690950095.4,286047000.5,N
1690950115.3,286047001.2,N
1690950135.1,286047000.6,N
1690950155.8,286047000.6,N
1690950175.7,286047001.1,N
1690950195.5,286046999.9,N
1690950215.3,286047000.1,N
1690950235.2,286047001.0,N
1690950255.0,286047002.0,N
1690950255.9,286047002.0,N
1690950275.7,286047001.2,N
1690950295.6,286047000.8,N
1690950315.4,286046999.0,N
1690950335.2,286046998.3,N
1690950355.1,286047001.1,N
1690950356.0,286047001.1,N
1690950375.8,286047000.6,N
1690950395.7,286047000.9,N
1690950415.5,286047000.3,N
1690950435.3,286047002.0,N
1690950455.2,286047002.3,N
1690950475.9,286047002.2,N
1690950495.7,286047002.5,N
1690950515.6,286047000.2,N
1690950535.4,286047000.1,N
1690950555.2,286047002.8,Y
1690950575.1,286047001.0,P
1690950576.0,286047001.0,P
1690950595.8,286047000.0,N
1690950615.6,286047000.2,N
1690950635.5,286046999.7,N
1690950655.3,286047000.7,N
1690950675.1,286047000.3,N
1690950695.9,286046998.1,Y
1690950715.7,286046998.3,P
1690950735.5,286046998.3,N
1690950755.4,286046998.1,N
1690950775.2,286046998.9,N
1690950795.0,286046999.1,N
1690950795.9,286046999.1,N
1690950815.8,286046998.4,N
1690950835.6,286046998.3,N
1690950855.4,286046998.5,N
1690950875.3,286047001.2,N
1690950895.1,286046998.5,N
1690950915.8,286046998.6,N
1690950935.7,286046998.2,N
1690950955.5,286047000.5,N
1690950975.3,286047000.7,N
1690950995.2,286046998.2,N
1690951015.0,286046998.6,N
1690951015.9,286046998.6,N
1690951035.7,286046998.6,N
1690951055.6,286046998.8,N
1690951075.4,286046998.8,N
1690951095.2,286046998.6,N
1690951115.1,286046998.7,N
1690951116.0,286046998.7,N
1690951135.8,286046998.8,N
1690951155.7,286046998.2,N
1690951175.5,286047000.5,N
1690951195.3,286047000.7,N
1690951215.2,286047000.8,N
1690951235.9,286047000.4,N
1690951255.7,286047000.3,N
1690951275.6,286047000.7,N
1690951295.4,286046999.9,N
1690951315.2,286047002.7,N
1690951335.1,286046999.8,N
1690951336.0,286046999.8,N
1690951355.8,286047001.8,N
1690951375.6,286047004.3,Y
1690951395.5,286047002.6,P
1690951415.3,286047001.6,N
1690951435.1,286047000.5,N
1690951455.9,286047000.0,N
1690951475.7,286047000.8,N
1690951495.5,286047001.1,N
1690951515.4,286046999.9,N
1690951535.2,286046998.3,N
1690951555.0,286047000.7,N
1690951555.9,286047000.7,N
1690951575.8,286046998.4,N
1690951595.6,286047000.5,N
1690951615.4,286047002.0,N
1690951635.3,286046999.9,N
1690951655.1,286047000.9,N
1690951675.8,286047000.5,N
1690951695.7,286046999.9,N
1690951715.5,286046999.8,N
1690951735.3,286047000.1,N
1690951755.2,286046999.9,N
1690951775.0,286047000.2,N
1690951775.9,286047000.2,N
1690951795.7,286047002.2,N
1690951815.6,286046999.7,N
1690951835.4,286047001.9,N
1690951855.2,286047001.9,N
1690951875.1,286047002.5,N
1690951876.0,286047002.5,N
1690951895.8,286047002.3,N
1690951915.6,286047001.4,N
1690951935.5,286047001.9,N
1690951955.3,286047002.1,N
1690951975.1,286047001.6,N
1690951995.9,286047003.0,N
1690952015.7,286047004.4,Y
1690952035.5,286047001.8,P
1690952055.4,286047002.3,P
1690952075.2,286047002.6,P
1690952095.0,286047002.7,Y
1690952096.0,286047002.7,P
1690952115.8,286046999.4,N
1690952135.6,286046998.2,N
1690952155.5,286047001.2,N
1690952175.3,286047000.3,N
1690952195.1,286047001.1,N
1690952215.9,286047000.7,N
1690952235.7,286047000.5,N
1690952255.5,286047000.8,N
1690952275.4,286046999.3,N
1690952295.2,286046998.3,N
1690952315.0,286046998.2,N
1690952315.9,286046998.2,N
1690952335.8,286047000.8,N
1690952355.6,286047001.2,N
1690952375.4,286047001.2,N
1690952395.3,286046998.5,N
